SCP
0 0 0 0 0 0 0 0 0 0 0 -0 0 -0 -0 -0 -0 -0 -0 -0 -0 -0 -0 -0 -0 -0 -0 -0 -0 0 -0 0 0 0 -0 0 0 0 0 0 0 0 0 0
0 0 0 0 0 0 0 0 0 0 0 0 0 0 0 -0 -0 -0 -0 -0 -0 -0 -0 -0 -0 -0 -0 -0 -0 -0 0 0 0 -0 0 0 0 0 0 -0 0 0 0 0
0 0 0 0 0 0 0 0 0 0 0 0 0 0 0 -0 -0 -0 -0 -0 -0 -0 -0 -0 -0 -0 -0 -0 -0 -0 -0 0 0 0 0 0 0 0 0 0 0 0 0 0
0 0 0 0 0 0 0 0 0 0 0 0 0 0 -0 -0 -0 -0 -0 -0 -0 -0 -0 -0 -0 -0 -0 -0 -0 -0 -0 0 0 0 0 0 0 0 0 0 0 0 0 0
0 0 0 0 0 0 0 0 0 0 0 0 0 0 0 -0 -0 -0 -0 -0 -0 -0 -0 -0 -0 -0 -0 -0 -0 -0 -0 0 0 0 0 0 0 0 0 0 0 0 0 0
0 0 0 0 0 0 0 0 0 0 0 0 0 0 0 -0 -0 -0 -0 -0 -0 -0 -0 -0 -0 -0 -0 -0 -0 -0 -0 -0 0 0 0 0 0 0 0 0 0 0 0 0
0 0 0 0 0 0 0 0 0 0 0 0 0 0 0 -0 0 -0 -0 -0 0 -0 -0 -0 -0 -0 -0 -0 -0 -0 -0 -0 0 0 0 0 0 0 0 0 0 0 0 0
0 0 0 0 0 0 0 0 0 0 0 0 0 0 0 0 0 0 -0 -0 -0 -0 -0 -0 -0 -0 -0 -0 -0 0 -0 -0 -0 -0 0 0 0 0 0 0 0 0 0 0
0 0 0 0 0 0 0 0 0 0 0 0 0 0 0 0 0 0 -0 -0 -0 -0 0 -0 -0 -0 -0 -0 -0 -0 0 -0 -0 -0 -0 -0 -0 0 0 0 0 0 0 0
0 0 0 0 0 0 0 0 0 0 0 0 0 0 0 0 0 0 0 -0 -0 0 0 -0 -0 -0 -0 -0 -0 -0 0 0 0 0 0 -0 0 0 0 0 0 0 0 0
0 0 0 0 0 0 0 0 0 0 0 0 0 0 0 0 0 0 0 -0 -0 0 0 -0 0 -0 -0 0 -0 -0 0 0 0 0 0 0 0 0 0 0 0 0 0 0
0 0 0 0 0 0 0 0 0 0 0 0 0 0 0 0 0 0 0 0 0 0 0 0 0 0 -0 -0 0 0 0 0 0 0 0 0 0 0 0 0 0 -0 -0 -0
0 0 0 0 0 0 0 0 0 0 0 0 0 0 0 0 0 0 0 0 0 0 0 0 0 0 0 0 0 0 0 0 0 0 0 0 0 0 0 0 0 -0 -0 -0
-0 0 0 0 0 0 0 0 0 0 0 0 0 0 0 0 0 0 0 0 0 0 0 0 0 0 0 0 0 0 0 0 0 0 0 0 0 0 0 0 0 0 -0 -0
-0 -0 0 0 0 0 0 0 0 0 0 0 0 0 0 0 0 0 0 0 0 0 0 0 0 0 0 0 0 0 0 0 0 0 0 0 0 0 0 0 0 0 0 0
-0 -0 -0 0 0 0 0 0 0 0 0 0 0 0 0 0 0 0 0 0 0 0 0 0 0 0 0 0 0 0 0 0 0 0 0 0 0 0 0 0 0 0 0 0
-0 -0 -0 0 0 0 0 0 0 0 0 0 0 0 0 0 0 0 0 0 0 0 0 0 0 0 0 0 0 0 0 0 0 0 0 0 0 0 0 0 0 0 0 0
0 0 -0 -0 0 0 0 0 0 0 0 0 0 0 0 0 0 0 0 0 0 1 0 0 0 0 0 0 0 0 0 0 0 0 0 0 0 0 0 0 0 0 0 0
0 0 0 0 0 0 0 0 0 0 0 0 0 0 0 0 0 0 -0 0 1 1 1 0 0 0 0 0 0 0 0 0 0 0 0 0 0 0 0 0 0 0 0 0
0 0 0 0 0 0 0 0 0 0 0 0 0 0 0 0 0 0 0 0 0 1 0 0 0 0 0 0 0 0 0 0 0 0 0 0 0 0 0 0 0 0 0 0
0 0 0 0 0 0 0 0 0 0 0 0 0 0 0 0 0 0 0 0 0 0 0 1 0 0 0 0 0 0 0 0 0 0 0 0 0 0 0 0 0 0 0 0
0 0 0 0 0 0 0 0 0 0 0 -0 0 0 0 0 0 0 0 0 0 0 0 0 0 0 0 0 0 0 0 0 0 0 0 0 0 0 0 0 0 0 0 0
0 0 0 0 0 0 0 0 0 0 0 -0 -0 0 0 0 0 0 0 0 0 0 0 0 0 0 0 0 0 0 0 0 0 0 0 0 0 0 0 0 0 0 0 0
-0 -0 -0 0 0 0 0 0 0 0 0 0 -0 -0 0 0 0 0 0 0 0 0 0 0 0 0 0 0 0 0 0 0 0 0 0 0 0 0 0 0 0 0 0 0
-0 0 0 0 0 0 0 0 0 0 0 0 0 0 0 0 0 0 0 0 0 0 0 0 0 0 0 0 0 0 0 0 0 0 0 0 0 0 0 0 0 0 0 0
-0 -0 -0 0 0 0 0 0 0 0 0 0 0 0 0 0 0 0 0 0 0 0 0 0 0 0 0 0 0 0 0 0 0 0 0 0 0 0 0 0 0 0 0 0
0 -0 -0 0 -0 -0 0 0 0 0 0 0 0 0 0 0 0 0 0 0 0 0 0 0 0 0 0 0 0 0 0 0 0 0 0 0 0 0 0 0 0 0 0 0
Wind_Speed_500mb
58 32 6 12 33 35 33 24 21 15 20 16 20 32 38 59 60 62 71 79 79 72 62 55 48 38 33 37 37 30 29 24 22 21 27 16 26 26 32 36 30 31 34 32
43 55 51 33 26 43 31 16 17 24 17 16 36 35 31 51 59 62 73 81 79 72 65 58 54 45 40 37 38 37 32 23 30 30 23 20 25 24 32 33 27 24 29 26
39 32 36 34 38 35 34 27 25 21 15 16 15 30 40 51 69 72 78 83 81 76 70 58 57 49 46 40 42 41 33 26 36 31 29 29 23 21 24 24 21 21 26 24
13 17 15 14 21 30 43 35 21 9 19 23 26 56 71 88 82 77 81 85 82 78 73 59 53 51 44 44 47 46 37 30 38 37 36 30 30 25 22 16 12 14 23 24
7 20 8 5 10 21 16 11 18 33 21 23 34 39 28 82 90 81 79 82 83 76 72 62 58 55 52 53 52 50 44 35 36 46 44 37 30 29 23 24 7 11 17 23
8 14 13 3 16 21 15 25 20 23 24 19 28 14 11 78 90 84 78 77 84 80 77 66 63 62 59 59 60 57 47 38 33 50 46 42 39 31 29 26 13 22 22 22
10 8 6 31 44 2 22 9 35 41 39 29 18 26 52 94 95 88 83 79 80 82 80 73 68 69 66 65 65 54 41 41 42 35 46 45 42 36 30 29 23 24 28 31
8 3 9 56 16 16 19 49 57 31 64 63 70 53 66 96 99 91 91 86 83 85 82 79 73 74 72 70 60 52 43 46 49 43 46 41 42 38 30 29 36 32 27 33
9 2 13 20 17 23 39 40 60 63 33 67 58 59 63 73 95 96 92 93 87 86 85 84 80 76 74 66 61 57 52 50 53 49 48 49 43 43 37 27 42 42 40 30
17 4 33 30 37 52 60 63 66 77 51 40 68 64 54 49 62 93 93 96 92 88 87 86 86 80 64 64 62 61 57 54 53 58 56 51 45 43 40 37 33 52 45 44
12 17 45 4 54 66 81 78 91 91 75 31 21 57 55 53 66 83 98 98 92 87 86 88 83 82 73 66 67 69 63 59 58 64 59 57 50 47 43 37 34 46 53 44
7 33 19 40 57 70 77 86 85 85 86 56 37 33 57 63 68 88 97 94 90 84 86 84 82 80 75 71 73 71 73 67 65 72 65 61 56 51 46 33 27 33 41 43
11 34 46 64 55 55 70 78 85 82 67 64 55 11 40 53 69 84 93 90 86 87 87 83 84 82 77 76 76 72 79 74 69 78 71 66 60 52 48 45 37 38 48 41
16 50 45 34 36 53 65 64 76 70 62 55 51 44 6 35 70 84 93 88 80 84 89 83 85 82 77 78 77 77 79 78 76 76 80 70 61 53 48 46 45 48 51 49
24 37 48 48 47 44 55 55 73 69 76 73 61 68 46 17 52 83 78 78 84 80 80 82 83 78 76 76 77 78 81 85 81 76 79 76 65 59 52 47 48 52 50 55
27 36 39 37 42 34 43 44 52 63 71 66 67 62 55 35 11 27 77 68 73 79 71 66 70 69 68 74 76 74 76 83 87 82 79 81 74 66 59 51 51 54 57 56
38 17 36 32 39 38 27 30 37 47 52 54 72 69 46 34 20 30 6 76 67 62 59 61 57 55 57 67 72 72 72 80 87 84 78 80 79 72 64 57 54 55 57 57
49 39 34 31 37 41 34 26 30 36 40 44 58 59 37 27 24 27 50 64 58 57 63 60 60 64 62 56 55 72 75 73 83 85 78 77 78 75 70 63 60 57 51 53
45 31 29 26 29 41 35 26 24 30 32 40 49 49 41 33 27 38 84 34 55 60 55 55 45 41 54 72 71 63 69 69 78 84 83 80 79 78 74 70 68 60 64 64
45 33 17 23 39 41 47 44 28 31 40 43 47 49 55 60 28 70 91 14 43 49 45 38 35 38 48 55 69 72 64 62 66 73 81 86 89 88 83 75 71 72 65 75
43 40 30 30 31 27 54 43 33 42 43 41 39 39 51 62 60 65 39 48 46 43 42 33 34 37 31 30 49 66 73 69 65 63 63 73 82 86 86 75 72 76 79 74
48 42 44 39 37 33 15 31 36 40 38 38 22 26 39 53 55 44 34 34 48 50 40 39 35 21 20 28 26 33 34 51 61 56 50 51 64 76 76 81 84 81 76 76
36 35 42 51 46 40 35 30 29 20 28 46 42 44 53 59 48 31 22 29 50 53 48 43 34 21 21 19 21 31 38 38 35 37 46 54 56 56 60 70 82 79 82 77
44 48 39 50 44 42 45 49 40 40 61 57 51 53 55 56 46 32 28 38 42 44 44 44 35 28 22 29 26 25 28 32 37 40 44 46 50 54 48 47 50 49 53 60
58 56 27 27 33 45 49 47 54 59 53 57 49 47 64 65 59 39 37 43 42 43 42 45 41 23 9 20 24 25 27 22 19 16 16 16 22 28 28 28 31 37 45 49
58 58 52 22 11 26 40 40 42 44 52 51 45 41 64 74 60 58 53 45 42 41 41 40 37 44 38 34 33 31 25 20 16 13 13 16 18 21 22 24 26 30 34 41
67 61 57 56 28 12 17 23 36 37 57 50 48 49 64 67 57 61 54 50 45 43 41 45 46 45 45 38 31 26 21 15 12 11 10 8 5 4 7 9 13 17 20 27
Wind_Direction_500mb
222 234 236 217 212 189 188 180 173 201 189 215 194 174 180 175 172 167 174 181 184 186 190 193 193 189 182 182 187 187 187 178 170 150 125 109 95 90 117 126 123 136 142 144
221 224 236 247 232 194 190 175 142 178 208 201 190 177 150 172 167 173 180 185 189 191 192 194 195 189 183 180 190 191 189 179 164 156 163 149 114 93 127 130 125 139 156 156
222 218 231 234 234 207 181 174 150 182 202 165 144 174 176 175 177 182 185 189 193 196 195 193 195 190 186 184 189 191 190 181 171 167 161 149 149 135 121 117 109 114 142 156
227 207 209 231 198 197 197 179 179 150 175 167 186 189 191 188 183 187 190 192 198 198 197 195 193 192 186 186 192 190 190 187 175 171 168 162 166 175 166 137 103 129 139 151
199 198 250 233 229 175 154 235 177 181 196 190 178 165 185 190 193 192 197 199 200 201 199 192 192 190 187 189 195 193 190 189 178 175 174 178 173 172 174 163 142 155 144 143
328 141 189 186 318 198 141 222 190 171 186 186 138 149 221 195 198 197 199 201 202 203 201 194 192 190 187 191 195 196 193 191 184 184 183 186 190 185 175 177 177 169 166 154
235 264 71 347 324 145 159 284 320 188 191 171 178 185 196 192 198 201 200 202 205 204 203 198 193 191 192 193 197 201 196 193 192 181 186 192 189 193 202 199 186 171 176 173
323 196 64 348 349 54 310 315 357 237 192 193 200 192 187 193 198 202 203 204 205 205 205 200 195 193 194 197 198 198 193 195 199 190 184 190 195 199 200 207 196 188 180 181
30 293 352 338 57 5 346 346 4 349 311 192 181 177 176 193 198 198 202 203 204 207 205 204 197 197 199 200 195 195 194 193 200 196 193 196 195 200 206 212 204 198 199 197
339 217 338 305 357 351 360 359 358 1 359 213 184 176 180 181 189 200 198 201 201 203 205 203 201 201 204 198 194 195 197 197 200 197 197 201 205 208 213 216 212 203 209 212
283 287 332 137 353 349 351 356 5 1 2 4 205 174 179 187 186 190 193 198 197 201 207 206 202 204 203 199 194 195 199 200 203 201 199 200 209 212 218 230 232 213 211 215
283 291 262 285 321 339 346 356 358 353 347 6 0 207 179 185 188 188 193 194 195 203 209 208 204 206 204 201 199 196 198 201 205 203 203 204 207 212 218 226 229 228 223 222
252 288 291 293 308 327 340 349 351 351 341 358 12 355 204 195 195 194 191 193 198 205 209 209 207 207 208 203 203 204 202 203 208 208 206 207 209 212 213 211 217 214 212 215
269 269 302 305 308 331 333 343 351 354 349 358 14 18 203 215 193 190 188 195 201 207 208 207 208 209 210 206 207 210 210 207 208 211 212 212 215 217 220 219 212 202 202 203
255 263 282 300 308 320 328 344 340 340 346 360 13 10 2 264 213 186 187 192 198 204 204 207 209 211 212 208 209 212 214 212 213 214 217 217 219 221 225 225 223 214 204 205
279 280 259 266 310 313 320 321 331 338 357 360 8 355 350 326 239 211 191 193 194 199 198 199 205 210 213 211 211 212 217 218 216 218 219 217 219 223 224 229 227 222 217 215
345 272 226 265 298 297 285 304 319 334 343 356 3 355 343 349 211 198 359 185 185 194 198 207 206 204 210 214 214 214 214 219 222 221 224 223 221 223 228 231 229 228 228 224
337 306 290 288 287 283 280 294 309 334 338 338 346 351 2 7 34 104 307 247 190 199 202 204 209 210 205 209 215 218 215 217 221 225 225 223 225 228 229 232 233 233 232 232
336 344 282 269 276 276 273 277 293 310 312 316 334 347 3 343 326 289 287 222 182 179 176 185 195 197 213 219 212 219 219 220 221 223 228 232 233 235 235 235 237 239 242 241
319 324 331 300 270 274 262 258 268 288 287 295 310 347 350 341 331 291 280 318 174 186 176 179 194 204 208 215 219 220 221 224 225 226 231 233 234 236 237 239 242 242 244 247
323 313 303 286 276 294 248 243 257 259 274 286 301 311 326 330 315 306 287 252 182 173 168 176 164 165 165 186 216 221 224 227 230 229 237 240 240 238 236 236 240 245 246 250
330 314 294 278 273 259 224 229 251 251 281 287 309 315 306 303 311 318 302 204 174 171 172 192 204 198 191 195 190 200 212 220 224 232 238 240 243 243 243 240 241 243 245 248
323 300 283 274 264 265 255 249 224 236 231 269 270 261 280 308 319 321 282 196 164 171 181 190 192 205 223 207 199 211 220 220 212 215 225 236 242 245 248 247 246 246 245 245
338 334 287 272 258 259 257 249 249 240 250 259 268 258 276 303 299 307 282 218 185 180 189 196 202 206 234 232 234 236 229 227 231 235 237 241 246 247 247 239 238 241 246 249
356 354 327 274 256 251 251 249 251 256 251 252 265 258 268 275 266 237 232 218 212 211 215 209 204 186 207 239 222 208 205 210 222 236 245 244 238 234 238 239 240 244 252 256
19 13 15 35 196 234 232 228 240 241 224 227 239 232 242 262 249 225 196 193 192 203 212 222 229 221 206 212 198 194 194 195 197 212 232 240 245 247 247 253 261 265 259 248
22 18 17 24 47 112 208 215 215 211 209 202 210 198 206 222 217 204 198 189 183 188 183 169 168 175 178 178 180 183 179 175 161 147 140 137 144 208 236 231 242 245 248 252
Wind_Speed_850mb
58 32 6 12 33 35 33 24 21 15 20 16 20 32 38 59 60 62 71 79 79 72 62 55 48 38 33 37 37 30 29 24 22 21 27 16 26 26 32 36 30 31 34 32
43 55 51 33 26 43 31 16 17 24 17 16 36 35 31 51 59 62 73 81 79 72 65 58 54 45 40 37 38 37 32 23 30 30 23 20 25 24 32 33 27 24 29 26
39 32 36 34 38 35 34 27 25 21 15 16 15 30 40 51 69 72 78 83 81 76 70 58 57 49 46 40 42 41 33 26 36 31 29 29 23 21 24 24 21 21 26 24
13 17 15 14 21 30 43 35 21 9 19 23 26 56 71 88 82 77 81 85 82 78 73 59 53 51 44 44 47 46 37 30 38 37 36 30 30 25 22 16 12 14 23 24
7 20 8 5 10 21 16 11 18 33 21 23 34 39 28 82 90 81 79 82 83 76 72 62 58 55 52 53 52 50 44 35 36 46 44 37 30 29 23 24 7 11 17 23
8 14 13 3 16 21 15 25 20 23 24 19 28 14 11 78 90 84 78 77 84 80 77 66 63 62 59 59 60 57 47 38 33 50 46 42 39 31 29 26 13 22 22 22
10 8 6 31 44 2 22 9 35 41 39 29 18 26 52 94 95 88 83 79 80 82 80 73 68 69 66 65 65 54 41 41 42 35 46 45 42 36 30 29 23 24 28 31
8 3 9 56 16 16 19 49 57 31 64 63 70 53 66 96 99 91 91 86 83 85 82 79 73 74 72 70 60 52 43 46 49 43 46 41 42 38 30 29 36 32 27 33
9 2 13 20 17 23 39 40 60 63 33 67 58 59 63 73 95 96 92 93 87 86 85 84 80 76 74 66 61 57 52 50 53 49 48 49 43 43 37 27 42 42 40 30
17 4 33 30 37 52 60 63 66 77 51 40 68 64 54 49 62 93 93 96 92 88 87 86 86 80 64 64 62 61 57 54 53 58 56 51 45 43 40 37 33 52 45 44
12 17 45 4 54 66 81 78 91 91 75 31 21 57 55 53 66 83 98 98 92 87 86 88 83 82 73 66 67 69 63 59 58 64 59 57 50 47 43 37 34 46 53 44
7 33 19 40 57 70 77 86 85 85 86 56 37 33 57 63 68 88 97 94 90 84 86 84 82 80 75 71 73 71 73 67 65 72 65 61 56 51 46 33 27 33 41 43
11 34 46 64 55 55 70 78 85 82 67 64 55 11 40 53 69 84 93 90 86 87 87 83 84 82 77 76 76 72 79 74 69 78 71 66 60 52 48 45 37 38 48 41
16 50 45 34 36 53 65 64 76 70 62 55 51 44 6 35 70 84 93 88 80 84 89 83 85 82 77 78 77 77 79 78 76 76 80 70 61 53 48 46 45 48 51 49
24 37 48 48 47 44 55 55 73 69 76 73 61 68 46 17 52 83 78 78 84 80 80 82 83 78 76 76 77 78 81 85 81 76 79 76 65 59 52 47 48 52 50 55
27 36 39 37 42 34 43 44 52 63 71 66 67 62 55 35 11 27 77 68 73 79 71 66 70 69 68 74 76 74 76 83 87 82 79 81 74 66 59 51 51 54 57 56
38 17 36 32 39 38 27 30 37 47 52 54 72 69 46 34 20 30 6 76 67 62 59 61 57 55 57 67 72 72 72 80 87 84 78 80 79 72 64 57 54 55 57 57
49 39 34 31 37 41 34 26 30 36 40 44 58 59 37 27 24 27 50 64 58 57 63 60 60 64 62 56 55 72 75 73 83 85 78 77 78 75 70 63 60 57 51 53
45 31 29 26 29 41 35 26 24 30 32 40 49 49 41 33 27 38 84 34 55 60 55 55 45 41 54 72 71 63 69 69 78 84 83 80 79 78 74 70 68 60 64 64
45 33 17 23 39 41 47 44 28 31 40 43 47 49 55 60 28 70 91 14 43 49 45 38 35 38 48 55 69 72 64 62 66 73 81 86 89 88 83 75 71 72 65 75
43 40 30 30 31 27 54 43 33 42 43 41 39 39 51 62 60 65 39 48 46 43 42 33 34 37 31 30 49 66 73 69 65 63 63 73 82 86 86 75 72 76 79 74
48 42 44 39 37 33 15 31 36 40 38 38 22 26 39 53 55 44 34 34 48 50 40 39 35 21 20 28 26 33 34 51 61 56 50 51 64 76 76 81 84 81 76 76
36 35 42 51 46 40 35 30 29 20 28 46 42 44 53 59 48 31 22 29 50 53 48 43 34 21 21 19 21 31 38 38 35 37 46 54 56 56 60 70 82 79 82 77
44 48 39 50 44 42 45 49 40 40 61 57 51 53 55 56 46 32 28 38 42 44 44 44 35 28 22 29 26 25 28 32 37 40 44 46 50 54 48 47 50 49 53 60
58 56 27 27 33 45 49 47 54 59 53 57 49 47 64 65 59 39 37 43 42 43 42 45 41 23 9 20 24 25 27 22 19 16 16 16 22 28 28 28 31 37 45 49
58 58 52 22 11 26 40 40 42 44 52 51 45 41 64 74 60 58 53 45 42 41 41 40 37 44 38 34 33 31 25 20 16 13 13 16 18 21 22 24 26 30 34 41
67 61 57 56 28 12 17 23 36 37 57 50 48 49 64 67 57 61 54 50 45 43 41 45 46 45 45 38 31 26 21 15 12 11 10 8 5 4 7 9 13 17 20 27
Wind_Direction_850mb
222 234 236 217 212 189 188 180 173 201 189 215 194 174 180 175 172 167 174 181 184 186 190 193 193 189 182 182 187 187 187 178 170 150 125 109 95 90 117 126 123 136 142 144
221 224 236 247 232 194 190 175 142 178 208 201 190 177 150 172 167 173 180 185 189 191 192 194 195 189 183 180 190 191 189 179 164 156 163 149 114 93 127 130 125 139 156 156
222 218 231 234 234 207 181 174 150 182 202 165 144 174 176 175 177 182 185 189 193 196 195 193 195 190 186 184 189 191 190 181 171 167 161 149 149 135 121 117 109 114 142 156
227 207 209 231 198 197 197 179 179 150 175 167 186 189 191 188 183 187 190 192 198 198 197 195 193 192 186 186 192 190 190 187 175 171 168 162 166 175 166 137 103 129 139 151
199 198 250 233 229 175 154 235 177 181 196 190 178 165 185 190 193 192 197 199 200 201 199 192 192 190 187 189 195 193 190 189 178 175 174 178 173 172 174 163 142 155 144 143
328 141 189 186 318 198 141 222 190 171 186 186 138 149 221 195 198 197 199 201 202 203 201 194 192 190 187 191 195 196 193 191 184 184 183 186 190 185 175 177 177 169 166 154
235 264 71 347 324 145 159 284 320 188 191 171 178 185 196 192 198 201 200 202 205 204 203 198 193 191 192 193 197 201 196 193 192 181 186 192 189 193 202 199 186 171 176 173
323 196 64 348 349 54 310 315 357 237 192 193 200 192 187 193 198 202 203 204 205 205 205 200 195 193 194 197 198 198 193 195 199 190 184 190 195 199 200 207 196 188 180 181
30 293 352 338 57 5 346 346 4 349 311 192 181 177 176 193 198 198 202 203 204 207 205 204 197 197 199 200 195 195 194 193 200 196 193 196 195 200 206 212 204 198 199 197
339 217 338 305 357 351 360 359 358 1 359 213 184 176 180 181 189 200 198 201 201 203 205 203 201 201 204 198 194 195 197 197 200 197 197 201 205 208 213 216 212 203 209 212
283 287 332 137 353 349 351 356 5 1 2 4 205 174 179 187 186 190 193 198 197 201 207 206 202 204 203 199 194 195 199 200 203 201 199 200 209 212 218 230 232 213 211 215
283 291 262 285 321 339 346 356 358 353 347 6 0 207 179 185 188 188 193 194 195 203 209 208 204 206 204 201 199 196 198 201 205 203 203 204 207 212 218 226 229 228 223 222
252 288 291 293 308 327 340 349 351 351 341 358 12 355 204 195 195 194 191 193 198 205 209 209 207 207 208 203 203 204 202 203 208 208 206 207 209 212 213 211 217 214 212 215
269 269 302 305 308 331 333 343 351 354 349 358 14 18 203 215 193 190 188 195 201 207 208 207 208 209 210 206 207 210 210 207 208 211 212 212 215 217 220 219 212 202 202 203
255 263 282 300 308 320 328 344 340 340 346 360 13 10 2 264 213 186 187 192 198 204 204 207 209 211 212 208 209 212 214 212 213 214 217 217 219 221 225 225 223 214 204 205
279 280 259 266 310 313 320 321 331 338 357 360 8 355 350 326 239 211 191 193 194 199 198 199 205 210 213 211 211 212 217 218 216 218 219 217 219 223 224 229 227 222 217 215
345 272 226 265 298 297 285 304 319 334 343 356 3 355 343 349 211 198 359 185 185 194 198 207 206 204 210 214 214 214 214 219 222 221 224 223 221 223 228 231 229 228 228 224
337 306 290 288 287 283 280 294 309 334 338 338 346 351 2 7 34 104 307 247 190 199 202 204 209 210 205 209 215 218 215 217 221 225 225 223 225 228 229 232 233 233 232 232
336 344 282 269 276 276 273 277 293 310 312 316 334 347 3 343 326 289 287 222 182 179 176 185 195 197 213 219 212 219 219 220 221 223 228 232 233 235 235 235 237 239 242 241
319 324 331 300 270 274 262 258 268 288 287 295 310 347 350 341 331 291 280 318 174 186 176 179 194 204 208 215 219 220 221 224 225 226 231 233 234 236 237 239 242 242 244 247
323 313 303 286 276 294 248 243 257 259 274 286 301 311 326 330 315 306 287 252 182 173 168 176 164 165 165 186 216 221 224 227 230 229 237 240 240 238 236 236 240 245 246 250
330 314 294 278 273 259 224 229 251 251 281 287 309 315 306 303 311 318 302 204 174 171 172 192 204 198 191 195 190 200 212 220 224 232 238 240 243 243 243 240 241 243 245 248
323 300 283 274 264 265 255 249 224 236 231 269 270 261 280 308 319 321 282 196 164 171 181 190 192 205 223 207 199 211 220 220 212 215 225 236 242 245 248 247 246 246 245 245
338 334 287 272 258 259 257 249 249 240 250 259 268 258 276 303 299 307 282 218 185 180 189 196 202 206 234 232 234 236 229 227 231 235 237 241 246 247 247 239 238 241 246 249
356 354 327 274 256 251 251 249 251 256 251 252 265 258 268 275 266 237 232 218 212 211 215 209 204 186 207 239 222 208 205 210 222 236 245 244 238 234 238 239 240 244 252 256
19 13 15 35 196 234 232 228 240 241 224 227 239 232 242 262 249 225 196 193 192 203 212 222 229 221 206 212 198 194 194 195 197 212 232 240 245 247 247 253 261 265 259 248
22 18 17 24 47 112 208 215 215 211 209 202 210 198 206 222 217 204 198 189 183 188 183 169 168 175 178 178 180 183 179 175 161 147 140 137 144 208 236 231 242 245 248 252